Location: Arbon
(43.0005°N, 0.7472°E)
Time: 10:18:09
(UTC+00:00)

ATLAS 5 CENTAUR R/B - Pass Details

Date: 22 April 2026
Orbit: 360 x 1063 km, 63.3° (Epoch: 20 May)

Event Time Altitude Azimuth Distance (km) Brightness Sun altitude
Rises 22:49:16 0° 322° (NW) 2,722 5.8 -32.5°
Reaches altitude 10° 22:51:17 10° 321° (NW) 1,922 4.8 -32.6°
Enters shadow 22:53:06 26° 319° (NW) 1,245 3.6 -32.7°
